Hailey, ID

11:09 AM MDT on October 20, 2017 (GMT -0600)
Friedman Memorial

Weather History for KSUN - June, 2013

Change the Weather History Date:

Sunday, June 30, 2013

  Actual Average Record
Temperature  
Mean Temperature 76 °F -  
Max Temperature 93 °F 79 °F 95 °F (2000)
Min Temperature 60 °F 49 °F 42 °F (2014)
Cooling Degree Days 12    
Growing Degree Days 26 (Base 50)    
Moisture  
Dew Point 49 °F    
Average Humidity 48    
Maximum Humidity 63    
Minimum Humidity 19    
Precipitation  
Precipitation 0.00 in - - ()
Sea Level Pressure  
Sea Level Pressure 30.19 in    
Wind  
Wind Speed 7 mph (NW)    
Max Wind Speed 13 mph    
Max Gust Speed 17 mph    
Visibility 10 miles    
Events      
Averages and records for this station are not official NWS values.
T = Trace of Precipitation, MM = Missing Value Source: NWS Daily Summary

Daily Weather History Graph

Daily Weather History Graph

Search for Another Location

Airport or City:

Trip Planner

Search our weather history database for the weather conditions in past years. The results will help you decide how hot, cold, wet, or windy it might be!

Date:

Astronomy

Jun. 30, 2013 Rise Set
Actual Time 5:59 AM MDT 9:22 PM MDT
Civil Twilight 5:24 AM MDT 9:57 PM MDT
Nautical Twilight 4:37 AM MDT 10:44 PM MDT
Astronomical Twilight 3:39 AM MDT 11:41 PM MDT
Moon 1:09 AM MDT (6/30) 2:33 PM MDT (6/30)
Length of Visible Light 16h 33m
Length of Day
15h 22m
Last Quarter, 45% of the Moon is Illuminated
Jun 30
Last Quarter
Jul 8
New
Jul 15
First Quarter
Jul 22
Full
Jul 29
Last Quarter

Hourly Weather History & Observations

Time (MDT) Temp. Heat Index Dew Point Humidity Pressure Visibility Wind Dir Wind Speed Gust Speed Precip Events Conditions
12:15 AM 69.8 °F - 50.0 °F 49% 30.16 in 10.0 mi WNW 5.8 mph - N/A   Clear
12:35 AM 68.0 °F - 50.0 °F 52% 30.18 in 10.0 mi Calm Calm - N/A   Clear
12:55 AM 71.6 °F - 50.0 °F 46% 30.19 in 10.0 mi NW 6.9 mph - N/A   Clear
1:15 AM 69.8 °F - 50.0 °F 49% 30.19 in 10.0 mi WNW 6.9 mph - N/A   Clear
1:35 AM 68.0 °F - 50.0 °F 52% 30.20 in 10.0 mi NW 5.8 mph - N/A   Clear
1:55 AM 68.0 °F - 50.0 °F 52% 30.21 in 10.0 mi NW 6.9 mph - N/A   Clear
2:15 AM 66.2 °F - 50.0 °F 56% 30.21 in 10.0 mi NW 6.9 mph - N/A   Clear
2:35 AM 64.4 °F - 50.0 °F 59% 30.21 in 10.0 mi WNW 9.2 mph - N/A   Clear
2:55 AM 64.4 °F - 50.0 °F 59% 30.21 in 10.0 mi NW 10.4 mph - N/A   Clear
3:15 AM 62.6 °F - 50.0 °F 63% 30.21 in 10.0 mi NW 11.5 mph - N/A   Clear
3:35 AM 62.6 °F - 50.0 °F 63% 30.21 in 10.0 mi NW 9.2 mph - N/A   Clear
3:55 AM 62.6 °F - 48.2 °F 59% 30.21 in 10.0 mi NW 11.5 mph - N/A   Clear
4:15 AM 62.6 °F - 48.2 °F 59% 30.21 in 10.0 mi NW 11.5 mph - N/A   Clear
4:35 AM 62.6 °F - 48.2 °F 59% 30.22 in 10.0 mi NW 10.4 mph - N/A   Clear
4:55 AM 60.8 °F - 48.2 °F 63% 30.22 in 10.0 mi NW 10.4 mph - N/A   Clear
5:15 AM 62.6 °F - 48.2 °F 59% 30.22 in 10.0 mi NNW 12.7 mph - N/A   Clear
5:35 AM 60.8 °F - 48.2 °F 63% 30.22 in 10.0 mi NW 9.2 mph - N/A   Clear
5:55 AM 60.8 °F - 48.2 °F 63% 30.22 in 10.0 mi NW 10.4 mph - N/A   Clear
6:15 AM 60.8 °F - 48.2 °F 63% 30.23 in 10.0 mi NW 10.4 mph - N/A   Clear
6:35 AM 60.8 °F - 48.2 °F 63% 30.23 in 10.0 mi NW 11.5 mph 17.3 mph N/A   Clear
6:47 AM 60.8 °F - 48.2 °F 63% 30.23 in 10.0 mi NW 11.5 mph 17.3 mph N/A   Clear
6:55 AM 60.8 °F - 48.2 °F 63% 30.23 in 10.0 mi NW 12.7 mph - N/A   Clear
7:47 AM 64.4 °F - 48.2 °F 56% 30.25 in 10.0 mi NW 11.5 mph - N/A   Clear
8:47 AM 69.8 °F - 50.0 °F 49% 30.24 in 10.0 mi NW 11.5 mph - N/A   Clear
9:47 AM 75.2 °F - 51.8 °F 44% 30.23 in 10.0 mi NW 11.5 mph - N/A   Clear
10:47 AM 84.2 °F - 48.2 °F 29% 30.21 in 10.0 mi NW 5.8 mph - N/A   Clear
11:47 AM 86.0 °F - 48.2 °F 27% 30.21 in 10.0 mi SE 5.8 mph - N/A   Partly Cloudy
12:47 PM 87.8 °F - 51.8 °F 29% 30.20 in 10.0 mi SSE 5.8 mph - N/A   Partly Cloudy
1:47 PM 89.6 °F - 48.2 °F 24% 30.18 in 10.0 mi SE 6.9 mph - N/A   Partly Cloudy
2:47 PM 89.6 °F - 51.8 °F 27% 30.17 in 10.0 mi South 5.8 mph - N/A   Partly Cloudy
4:53 PM 93.2 °F - 44.6 °F 19% 30.13 in 10.0 mi SE 6.9 mph - N/A   Partly Cloudy
5:47 PM 91.4 °F 89.4 °F 55.4 °F 29% 30.11 in 10.0 mi SSE 5.8 mph - N/A   Partly Cloudy
6:47 PM 93.2 °F - 44.6 °F 19% 30.10 in 10.0 mi Calm Calm - N/A   Partly Cloudy
7:50 PM 84.2 °F 83.0 °F 55.4 °F 37% 30.10 in 10.0 mi South 8.1 mph - N/A   Partly Cloudy
8:47 PM 78.8 °F - 53.6 °F 42% 30.12 in 10.0 mi SSW 5.8 mph - N/A   Scattered Clouds
9:47 PM 75.2 °F - 51.8 °F 44% 30.13 in 10.0 mi Calm Calm - N/A   Scattered Clouds
10:47 PM 71.6 °F - 51.8 °F 50% 30.16 in 10.0 mi West 4.6 mph - N/A   Partly Cloudy
11:15 PM 71.6 °F - 50.0 °F 46% 30.16 in 10.0 mi Calm Calm - N/A   Clear
11:35 PM 71.6 °F - 46.4 °F 41% 30.17 in 10.0 mi NNW 5.8 mph - N/A   Clear
11:55 PM 71.6 °F - 46.4 °F 41% 30.18 in 10.0 mi NNW 6.9 mph - N/A   Clear